[[{"header":{"parameterUnit":"m.s-1","parameterCategory":1,"la1":30.2991,"la2":30.254,"lo1":-89.0895,"lo2":-89.0444,"dy":0.0017,"dx":0.0017,"nx":28,"ny":28,"refTime":"2026-01-31T03:00:00:Z","depth":0,"parameterNumber":2,"parameterNumberName":"U-component_of_WINDS"},"data":[0,0,0,0,0,0,0,0,0,0,0,0,0,0,0,0,0,0,0,0,0,0,0,0,0,0,0,0,0,0,0,0,0,0,0,0,0,0,0,0,0,0,0,0,0,0,0,0,0,0,0,0,0,0,0,0,0,0,2.6976,2.6977,0,2.7067,2.7068,2.7069,2.704,2.7038,2.7036,2.7034,2.7125,2.7129,2.7133,0,0,0,0,0,0,0,0,0,0,0,0,0,2.6776,2.678,2.6976,2.6977,2.6978,2.7067,2.7068,2.7069,2.704,2.7038,2.7035,2.7033,2.7124,2.7128,2.7134,0,0,0,0,0,0,0,0,0,0,0,0,0,2.6864,2.6781,2.6976,2.6974,2.6975,2.7066,2.7068,2.7069,2.704,2.7037,2.7035,2.7032,2.7122,2.7128,2.7134,2.7232,0,0,2.7154,2.7156,0,0,0,0,0,0,0,0,2.6859,2.6872,2.6973,2.6975,2.6976,2.7039,2.7031,2.7124,2.7041,2.7016,2.7034,2.703,2.7099,2.7107,2.713,2.7236,2.724,2.7154,2.7158,2.7161,2.7163,0,0,0,0,0,0,0,2.6853,2.6868,2.7012,2.6975,2.6976,2.6969,2.6978,2.7048,2.7072,2.7018,2.7016,2.7027,2.7099,2.7124,2.7132,2.7241,2.7154,2.716,2.7164,2.7166,2.7432,2.7435,0,0,0,0,0,0,2.6847,2.6863,2.7009,2.7014,2.6909,2.6975,2.6985,2.7021,2.7071,2.7076,2.7029,2.7025,2.7114,2.7124,2.7135,2.7252,2.7161,2.7167,2.717,2.7429,2.7433,2.7436,0,0,0,0,0,0,2.6842,2.686,2.7005,2.6938,2.6956,2.6981,2.7022,2.7025,2.705,2.708,2.7084,2.7051,2.7113,2.7126,2.7208,2.7255,2.717,2.7175,2.7425,2.743,2.7435,2.7488,0,0,0,0,0,0,2.6837,2.6859,2.6896,2.6939,2.696,2.7077,2.7025,2.7029,2.7061,2.7057,2.7102,2.7106,2.7111,2.7199,2.7214,2.7262,2.718,2.7421,2.7427,2.7433,2.7482,2.7494,2.7504,0,0,0,0,0,2.683,2.6907,2.6898,2.6916,2.7007,2.708,2.7092,2.7097,2.7065,2.7103,2.7123,2.7105,2.7248,2.7207,2.7225,2.7275,2.7418,2.7425,2.7433,2.7477,2.7492,2.7504,0,0,0,0,0,0,2.6868,2.6913,2.6903,2.6997,2.7035,2.7075,2.7123,2.7112,2.7159,2.7153,2.7157,2.7167,2.7251,2.7272,2.7226,2.7372,2.7328,2.7339,2.7356,2.737,2.7381,2.7374,2.7186,0,0,0,0,0,2.6887,2.6943,2.6979,2.7058,2.7078,2.7097,2.7129,2.713,2.7169,2.7185,2.721,2.7249,2.7302,2.7337,2.7388,2.7485,2.7494,2.7528,2.754,2.7549,2.7558,2.7611,2.7626,2.746,2.746,2.746,0,0,2.6928,2.6959,2.6994,2.7067,2.7096,2.7154,2.7111,2.7173,2.7216,2.7194,2.7273,2.7294,2.7337,2.7427,2.7467,2.7446,2.7606,2.7558,2.7565,2.7569,2.762,2.7635,2.7649,2.7465,2.7464,2.7464,0,0,2.7031,2.706,2.713,2.716,2.7206,2.7219,2.7235,2.7278,2.729,2.737,2.7355,2.7406,2.7498,2.7529,2.7557,2.7673,2.7659,2.769,2.7747,2.7799,2.7812,2.7824,2.7865,2.7879,2.7699,2.7699,2.77,0,2.7075,2.7161,2.7166,2.723,2.7263,2.7247,2.7317,2.7346,2.7406,2.7429,2.7404,2.752,2.7548,2.7645,2.7674,2.7697,2.7716,2.7684,2.781,2.7822,2.7832,2.7872,2.7887,2.7703,2.7702,2.7702,2.7702,0,2.7213,2.7274,2.7324,2.7383,2.7421,2.7488,2.7502,2.754,2.7538,2.7553,2.7635,2.7668,2.7725,2.7749,2.7747,2.7846,2.7831,2.7809,2.7764,2.7852,2.7888,2.7904,2.7708,2.7707,2.7706,2.7705,0,0,2.7342,2.7404,2.7422,2.7449,2.7498,2.7545,2.7611,2.7668,2.77,2.7742,2.7798,2.7877,2.7856,2.7888,2.789,2.7935,2.8025,2.7906,2.7908,2.7927,2.8136,2.8152,2.817,2.8016,2.8019,2.8021,2.8132,0,2.7448,2.7565,2.7572,2.7677,2.7733,2.7719,2.7777,2.7813,2.7829,2.7879,2.7896,2.7952,2.7921,2.794,2.7984,2.8004,2.8066,2.7997,2.8067,2.8069,2.8055,2.8189,2.8206,2.8309,2.8147,2.8149,2.8151,0,2.7588,2.7635,2.7747,2.7789,2.7813,2.7864,2.7917,2.7965,2.8006,2.8015,2.8051,2.8046,2.8114,2.8068,2.8161,2.8113,2.8142,2.8157,2.8161,2.8167,2.8115,2.8198,2.8343,2.8358,2.8174,2.8172,2.817,0,2.767,2.7762,2.784,2.7863,2.7915,2.7952,2.7975,2.8013,2.8047,2.8094,2.8116,2.8169,2.8198,2.824,2.825,2.8215,2.8343,2.8297,2.8351,2.8351,2.8378,2.8376,2.8528,2.8398,2.8398,2.8397,2.8397,0,2.7788,2.7857,2.7878,2.7926,2.8002,2.8009,2.8085,2.8105,2.814,2.8192,2.8183,2.8232,2.8242,2.8293,2.8302,2.8377,2.839,2.8399,2.84,2.8399,2.8398,2.8418,2.8411,2.8401,2.8401,2.84,2.8399,0,2.7892,2.7909,2.7994,2.8036,2.8048,2.8103,2.8138,2.8185,2.82,2.8266,2.8281,2.8306,2.8365,2.838,2.845,2.8456,2.8545,2.854,2.8531,2.8531,2.8584,2.8578,2.8754,2.8777,2.8632,2.8633,2.8634,0,2.7966,2.8019,2.8067,2.8101,2.8126,2.8181,2.8216,2.8226,2.8262,2.8314,2.8354,2.8413,2.846,2.8556,2.8579,2.8633,2.8629,2.8687,2.8637,2.8634,2.8629,2.8626,2.8631,2.8696,2.8697,2.8698,2.8699,0,2.8095,2.8101,2.8152,2.8207,2.8249,2.8292,2.8333,2.8361,2.8376,2.8418,2.8479,2.8516,2.8589,2.8647,2.8701,2.8725,2.8715,2.8715,2.873,2.873,2.8722,2.8727,2.8556,2.8711,2.871,2.8709,2.8708,2.8708,2.8186,2.8232,2.8274,2.8331,2.8363,2.8402,2.8447,2.8469,2.852,2.858,2.8583,2.8649,2.8689,2.8762,2.8789,2.8841,2.8823,2.8845,2.885,2.8856,2.886,2.8715,2.8851,2.885,2.885,2.885,2.885,0,2.8315,2.8341,2.8393,2.8451,2.8496,2.8484,2.8529,2.8567,2.8626,2.8665,2.8712,2.8782,2.8839,2.8868,2.8924,2.896,2.8957,2.8974,2.8971,2.8977,2.8873,2.8854,2.8976,2.8976,2.8976,2.8976,2.8976,2.8976,2.8387,2.8464,2.8475,2.8568,2.8594,2.8659,2.8686,2.8721,2.8752,2.8831,2.8879,2.8897,2.8932,2.8991,2.9042,2.9049,2.907,2.909,2.9095,2.8997,2.8984,2.8972,2.8954,2.9095,2.9095,2.9194,2.9195,2.9196]},{"header":{"parameterUnit":"m.s-1","parameterCategory":1,"la1":30.2991,"la2":30.254,"lo1":-89.0895,"lo2":-89.0444,"dy":0.0017,"dx":0.0017,"nx":28,"ny":28,"refTime":"2026-01-31T03:00:00:Z","depth":0,"parameterNumber":3,"parameterNumberName":"V-component_of_WINDS"},"data":[0,0,0,0,0,0,0,0,0,0,0,0,0,0,0,0,0,0,0,0,0,0,0,0,0,0,0,0,0,0,0,0,0,0,0,0,0,0,0,0,0,0,0,0,0,0,0,0,0,0,0,0,0,0,0,0,0,0,-2.7044,-2.7045,0,-2.7182,-2.7183,-2.7185,-2.7213,-2.7212,-2.7211,-2.721,-2.735,-2.7355,-2.7359,0,0,0,0,0,0,0,0,0,0,0,0,0,-2.6805,-2.6809,-2.7044,-2.7046,-2.7047,-2.7181,-2.7183,-2.7185,-2.7214,-2.7212,-2.7211,-2.721,-2.7349,-2.7354,-2.736,0,0,0,0,0,0,0,0,0,0,0,0,0,-2.6922,-2.681,-2.7044,-2.7078,-2.7082,-2.7181,-2.7183,-2.7186,-2.7214,-2.7212,-2.7211,-2.7209,-2.7347,-2.7354,-2.736,-2.7435,0,0,-2.7382,-2.7385,0,0,0,0,0,0,0,0,-2.6915,-2.6931,-2.7071,-2.7076,-2.7081,-2.7179,-2.715,-2.7269,-2.7214,-2.7164,-2.721,-2.7209,-2.7294,-2.7305,-2.7335,-2.7441,-2.7447,-2.7383,-2.7387,-2.739,-2.7392,0,0,0,0,0,0,0,-2.6907,-2.6925,-2.7098,-2.7073,-2.7079,-2.7086,-2.7101,-2.7173,-2.7236,-2.7168,-2.717,-2.7186,-2.7297,-2.7328,-2.7338,-2.7449,-2.7382,-2.7389,-2.7393,-2.7396,-2.7624,-2.7625,0,0,0,0,0,0,-2.6893,-2.6918,-2.7094,-2.7102,-2.6993,-2.7091,-2.7108,-2.7149,-2.7235,-2.7247,-2.7188,-2.7187,-2.7317,-2.733,-2.7343,-2.7436,-2.739,-2.7396,-2.74,-2.7622,-2.7624,-2.7626,0,0,0,0,0,0,-2.6888,-2.6909,-2.7088,-2.7011,-2.7034,-2.7097,-2.7143,-2.7152,-2.7184,-2.725,-2.7261,-2.7208,-2.7316,-2.7333,-2.7412,-2.7441,-2.74,-2.7406,-2.762,-2.7622,-2.7625,-2.7621,0,0,0,0,0,0,-2.6881,-2.6907,-2.6936,-2.7011,-2.7038,-2.7155,-2.7144,-2.7156,-2.7196,-2.7197,-2.7272,-2.7283,-2.7316,-2.7401,-2.7419,-2.745,-2.7411,-2.7617,-2.7621,-2.7624,-2.7618,-2.7623,-2.7627,0,0,0,0,0,-2.6872,-2.6929,-2.6937,-2.6958,-2.7076,-2.7156,-2.7172,-2.7209,-2.7198,-2.7227,-2.727,-2.7281,-2.7435,-2.7409,-2.7429,-2.7462,-2.7616,-2.762,-2.7624,-2.7617,-2.7622,-2.7627,0,0,0,0,0,0,-2.6854,-2.6939,-2.6949,-2.7032,-2.7087,-2.7161,-2.7199,-2.7214,-2.7272,-2.7271,-2.7314,-2.7331,-2.7406,-2.7443,-2.7412,-2.7539,-2.7525,-2.7533,-2.7512,-2.7518,-2.7522,-2.7511,-2.7417,0,0,0,0,0,-2.686,-2.6918,-2.6989,-2.7055,-2.7083,-2.7136,-2.7173,-2.7197,-2.7255,-2.7278,-2.7327,-2.7383,-2.7444,-2.7483,-2.7543,-2.7624,-2.7641,-2.7657,-2.7661,-2.7664,-2.7671,-2.7716,-2.7724,-2.764,-2.764,-2.764,0,0,-2.6872,-2.6926,-2.696,-2.7053,-2.7098,-2.7158,-2.7156,-2.7218,-2.7263,-2.7288,-2.7365,-2.7402,-2.7468,-2.7548,-2.7585,-2.758,-2.7698,-2.767,-2.7672,-2.7676,-2.7721,-2.7729,-2.7736,-2.7642,-2.7642,-2.7641,0,0,-2.6924,-2.6971,-2.7031,-2.7076,-2.7145,-2.7181,-2.7195,-2.7268,-2.7294,-2.7372,-2.7392,-2.7445,-2.755,-2.7595,-2.7632,-2.7702,-2.7714,-2.7721,-2.7742,-2.7786,-2.7792,-2.7798,-2.7823,-2.7831,-2.7727,-2.7727,-2.7727,0,-2.693,-2.7021,-2.706,-2.7122,-2.7162,-2.7188,-2.7249,-2.7291,-2.7376,-2.7403,-2.7396,-2.7528,-2.7574,-2.7665,-2.7682,-2.7711,-2.7728,-2.7712,-2.7788,-2.7795,-2.7801,-2.7825,-2.7834,-2.7727,-2.7727,-2.7727,-2.7727,0,-2.7024,-2.7087,-2.7127,-2.7208,-2.7253,-2.7314,-2.7363,-2.7403,-2.7424,-2.746,-2.7539,-2.7595,-2.7667,-2.769,-2.771,-2.7784,-2.7779,-2.778,-2.7766,-2.7809,-2.7832,-2.7841,-2.7728,-2.7728,-2.7728,-2.7727,0,0,-2.7068,-2.7171,-2.7185,-2.7222,-2.73,-2.7349,-2.7411,-2.7482,-2.7516,-2.7574,-2.7626,-2.7715,-2.7716,-2.7758,-2.7783,-2.7822,-2.7873,-2.7818,-2.782,-2.7826,-2.7958,-2.7956,-2.7966,-2.7882,-2.7884,-2.7885,-2.7952,0,-2.7129,-2.7241,-2.7279,-2.7372,-2.743,-2.7455,-2.751,-2.7563,-2.7599,-2.7653,-2.7692,-2.7754,-2.7751,-2.7776,-2.7816,-2.7859,-2.79,-2.7854,-2.7931,-2.7933,-2.7913,-2.7978,-2.7977,-2.8037,-2.7961,-2.7963,-2.7964,0,-2.7215,-2.7275,-2.7373,-2.7444,-2.747,-2.7518,-2.7586,-2.7637,-2.7699,-2.7722,-2.7769,-2.7792,-2.7857,-2.7841,-2.7932,-2.79,-2.7934,-2.796,-2.7963,-2.7971,-2.7951,-2.7987,-2.8057,-2.8066,-2.7979,-2.7978,-2.7977,0,-2.7236,-2.7341,-2.7414,-2.7445,-2.7529,-2.7563,-2.7599,-2.7659,-2.7699,-2.7758,-2.7785,-2.7851,-2.7887,-2.7937,-2.7977,-2.7961,-2.8065,-2.8051,-2.8085,-2.8084,-2.8105,-2.8103,-2.8181,-2.8128,-2.8128,-2.8128,-2.8128,0,-2.73,-2.736,-2.7424,-2.7469,-2.7536,-2.7578,-2.7644,-2.7682,-2.7735,-2.7787,-2.7814,-2.7862,-2.7912,-2.7968,-2.7999,-2.807,-2.8086,-2.8106,-2.8114,-2.8104,-2.8101,-2.8126,-2.8122,-2.813,-2.813,-2.8129,-2.8129,0,-2.7335,-2.7381,-2.7461,-2.7535,-2.7555,-2.7601,-2.7664,-2.7708,-2.7745,-2.7811,-2.7829,-2.7887,-2.7953,-2.7998,-2.8083,-2.8104,-2.8181,-2.8188,-2.816,-2.8163,-2.8195,-2.8191,-2.829,-2.8305,-2.8243,-2.8243,-2.8244,0,-2.7372,-2.7419,-2.7497,-2.7534,-2.7571,-2.763,-2.7671,-2.7715,-2.7757,-2.783,-2.7865,-2.7934,-2.799,-2.8095,-2.8144,-2.8209,-2.8218,-2.8248,-2.8228,-2.8216,-2.8218,-2.8214,-2.8219,-2.8251,-2.8252,-2.8252,-2.8252,0,-2.7434,-2.7454,-2.7512,-2.7579,-2.7627,-2.7681,-2.7736,-2.7764,-2.7817,-2.7863,-2.7931,-2.7975,-2.8062,-2.8129,-2.8199,-2.8237,-2.8253,-2.8259,-2.827,-2.8259,-2.8241,-2.8251,-2.8168,-2.8256,-2.8255,-2.8255,-2.8255,-2.8255,-2.7471,-2.7513,-2.7575,-2.7639,-2.7684,-2.7735,-2.778,-2.7822,-2.788,-2.7954,-2.7976,-2.8047,-2.8108,-2.8203,-2.8242,-2.8298,-2.8295,-2.8312,-2.8316,-2.8319,-2.8319,-2.8233,-2.8311,-2.8311,-2.8311,-2.8311,-2.8311,0,-2.7533,-2.7574,-2.7632,-2.7708,-2.7758,-2.777,-2.7831,-2.7872,-2.7934,-2.7989,-2.8045,-2.8123,-2.8188,-2.8243,-2.8311,-2.8345,-2.8354,-2.8361,-2.8359,-2.8367,-2.8317,-2.8301,-2.8352,-2.8352,-2.8352,-2.8352,-2.8352,-2.8352,-2.7571,-2.7643,-2.767,-2.7765,-2.7806,-2.7876,-2.791,-2.7956,-2.8,-2.8086,-2.8141,-2.8176,-2.8232,-2.8303,-2.8364,-2.8378,-2.8402,-2.8407,-2.8423,-2.8375,-2.837,-2.8366,-2.835,-2.8412,-2.8412,-2.8468,-2.8468,-2.8469]}]]